User: anonymous   Login
Location: Unspecified
(0.0000°N, 0.0000°E)
Time: 02:22:54
(UTC+00:00)
Language:

OSCAR 3 - Orbit

View from above orbital plane
View from above orbital plane
View from above satellite
View from above satellite

Ground track
Ground track

The orbit data is extracted from the following two-line orbital elements,

1  1293U 65016F   18203.42353720 +.00000036 +00000-0 +54697-4 0  9997
2  1293 070.0733 181.8788 0016039 046.3002 313.9435 14.06268968726128
Epoch (UTC): 22 July 2018 10:09:53
Eccentricity: 0.0016039
inclination: 70.0733°
perigee height: 860 km
apogee height: 884 km
right ascension of ascending node: 181.8788°
argument of perigee: 46.3002°
revolutions per day: 14.06268968
mean anomaly at epoch: 313.9435°
orbit number at epoch: 72612

The dashed part of the orbit path shows where the satellite is in the earth's shadow,  

DLR